Location: Newark
(40.7066°N, 111.8219°W)
Time: 04:37:35
(UTC+00:00)

Transit 2A Rocket - Pass Details

Date: 20 November 2019
Orbit: 594 x 909 km, 66.7° (Epoch: 09 December)

Event Time Altitude Azimuth Distance (km) Brightness Sun altitude
Rises 05:09:58 0° 223° (SW) 3,088 - -56.4°
Reaches altitude 10° 05:12:28 10° 229° (SW) 2,123 - -56.8°
Maximum altitude 05:17:03 47° 303° (WNW) 860 - -57.6°
Drops below altitude 10° 05:21:22 10° 18° (NNE) 1,989 - -58.2°
Sets 05:23:39 0° 25° (NNE) 2,873 - -58.6°
